Tracking 18984 objects as of 24-Feb-2018
HD Live streaming from Space Station
objects crossing your sky now

COSMOS 1295

Track COSMOS 1295 now!
10-day predictions
COSMOS 1295 is classified as:


NORAD ID: 12681
Int'l Code: 1981-077A
Perigee: 950.7 km
Apogee: 1,017.1 km
Inclination: 82.9 °
Period: 104.6 minutes
Semi major axis: 7354 km
RCS: 2.187 m2 (large)
Launch date: August 12, 1981
Source: Commonwealth of Independent States (former USSR) (CIS)
Launch site: PLESETSK MISSILE AND SPACE COMPLEX (PKMTR)
aabbcc
Your satellite tracking list
Your tracking list is empty




NASA's NSSDC Master Catalog

Two Line Element Set (TLE):
1 12681U 81077A   18054.52542212  .00000038  00000-0  22543-4 0  9993
2 12681  82.9165 222.8470 0045150 118.2479 299.2079 13.76378480834889
Source of the keplerian elements: AFSPC